Location: Unspecified
(0.0000°N, 0.0000°E)
Time: 00:12:45
(UTC+00:00)

N. Korean satellite - Pass Details

Date: 23 July 2017
Orbit: 461 x 516 km, 97.2° (Epoch: 21 September)

Event Time Altitude Azimuth Distance (km) Brightness Sun altitude
Rises 19:21:37 0° 201° (SSW) 2,527 10.2 -17.6°
Reaches altitude 10° 19:24:35 10° 229° (SW) 1,633 9.6 -18.3°
Maximum altitude 19:26:17 13° 258° (WSW) 1,441 9.7 -18.7°
Drops below altitude 10° 19:27:59 10° 288° (WNW) 1,618 10.5 -19.1°
Sets 19:30:55 0° 316° (NW) 2,481 11.3 -19.8°
